sat.trackr.live / text

‹ back to catalog

QIANFAN-106

NORAD 66048 · 2025-233R

PAYLOAD ACTIVE UNKNOWN

§ Identity

Operator
Country
PRC
Launch date
2025-10-17
Launch site
TAISC
Launch vehicle
Mass (kg)
RCS (m²)

External: N2YO · Heavens-Above · Gunter

§ Orbital elements

Epoch: 2026-05-25T03:46:34.551840Z

Period
106.59 min
Inclination
89.0013°
Eccentricity
0.0001918
Mean motion
13.51006521 rev/d
Perigee alt
1,067.1 km
Apogee alt
1,070.0 km
Semi-major
7,446.7 km
B*
1.9756e-4
RAAN
45.4829°
Arg perigee
81.8584°
Mean anomaly
278.2785°
Rev number
3,007

§ Raw data

QIANFAN-1061 66048U 25233R   26145.15734435  .00000140  00000+0  19756-3 0  99942 66048  89.0013  45.4829 0001918  81.8584 278.2785 13.51006521 30075

JSON: /api/v1/satellites/66048 · /tle

For live sub-satellite position, see the globe view (requires WebGL).

§ Visibility from observer

Set your observer location to see the next 7 days of passes ≥ 10°. The values pass through the URL so the page stays shareable.

No JS? Fill the form by hand. The geolocation button needs JavaScript.